Torna al catalogo

THOR ABLESTAR DEB

AttivoLEO
NORAD 6748·DEBRIS·🇺🇸 United States

Lanciato Jun 29, 1961 da Cape Canaveral Space Force Station

Loading…

Prossimi Passaggi (prossime 24 ore)

TLE

AggiornatoSource: Space-Track

Epoca: Sep 14, 2026, 12:43 UTC

1 06748U 61015KN  26257.53008325  .00003460  00000-0  11753-2 0  9998
2 06748  66.8913  84.5240 0064455 225.5484 134.0337 14.36580985303496

Traccia THOR ABLESTAR DEB in tempo reale con AllMySat

Download on the App Store